Regional Weather Roundup
Issued by NWS

Home | Current Version | Previous Version | Text Only | Print | Product List | Glossary Off
Versions: 1 2 3 4 5 6 7 8 9 10 11 12 13 14 15 16 17 18 19 20 21 22 23 24 25 26 27 28 29 30 31 32 33 34 35 36 37 38 39 40 41 42 43 44 45 46 47 48 49 50

000
ASUS44 KMEG 200110
RWRTN
TENNESSEE HOURLY STATE WEATHER ROUNDUP
NATIONAL WEATHER SERVICE MEMPHIS TN
800 PM CDT TUE AUG 19 2014

TNZ002-004-019-021-049-052-054-088>092-200200-
WEST TENNESSEE

CITY           SKY/WX    TMP DP  RH WIND       PRES   REMARKS
MEMPHIS INTL   PTCLDY    86  76  71 SW6       29.88R HX  96
NWS MEMPHIS      N/A     88 N/A N/A MISG        N/A
JACKSON        PTCLDY    82  74  76 S3        29.87R
DYERSBURG      PTCLDY    81  68  65 CALM      29.86S
UNION CITY     CLEAR     79  73  83 S3        29.84F
PARIS          CLEAR     75  72  88 S6        29.87F
HUNTINGDON     PTCLDY    76  73  90 CALM      29.87R
LEXINGTON      CLEAR     81  73  78 CALM      29.88R
SAVANNAH       CLEAR     79  79 100 CALM      29.90R
$$

TNZ008-025-027-028-033-062-065-066-200200-
NORTH MIDDLE TENNESSEE

CITY           SKY/WX    TMP DP  RH WIND       PRES   REMARKS
NASHVILLE      MOCLDY    83  73  72 SW3       29.89R
CLARKSVILLE    MOCLDY    83  74  74 SW10      29.83S
SMYRNA         PTCLDY    82  72  72 W3        29.89R
MURFREESBORO   PTCLDY    85  71  62 SW5       29.88R HX  90
COOKEVILLE     CLEAR     75  73  94 CALM      29.91S
GALLATIN       PTCLDY    85  74  69 SW3       29.89R HX  92
CROSSVILLE     CLEAR     72  69  90 CALM      29.97R
$$

TNZ061-075-076-078-094-096-097-200200-
SOUTH MIDDLE TENNESSEE

CITY           SKY/WX    TMP DP  RH WIND       PRES   REMARKS
LEWISBURG      PTCLDY    82  75  79 CALM      29.89R
FAYETTEVILLE   CLEAR     81  72  74 CALM      29.91S
TULLAHOMA      CLEAR     77  72  83 CALM      29.93R
WINCHESTER     CLEAR     79  73  83 CALM      29.92S
MCMINNVILLE    CLEAR     79  77  94 CALM      29.92R
COLUMBIA       CLEAR     82  75  78 SW3       29.89R
SHELBYVILLE    CLEAR     81  75  83 CALM      29.91S
$$

TNZ017-018-042-046-047-200200-
NORTHEAST TENNESSEE

CITY           SKY/WX    TMP DP  RH WIND       PRES   REMARKS
TRI CITIES     PTCLDY    76  66  71 W5        29.95R
ELIZABETHTON   CLOUDY    72  68  88 CALM      29.96R
$$

TNZ012-013-036-069-073-074-200200-
CENTRAL EAST TENNESSEE

CITY           SKY/WX    TMP DP  RH WIND       PRES   REMARKS
KNOXVILLE      MOCLDY    74  72  93 S3        29.90S
OAK RIDGE      CLEAR     75  69  81 CALM      29.93S
GATLINBURG     MOCLDY    73  68  83 CALM      29.92S
MORRISTOWN     CLEAR     75  70  83 CALM      29.94S
$$

TNZ083-085-099-200200-
SOUTHEAST TENNESSEE

CITY           SKY/WX    TMP DP  RH WIND       PRES   REMARKS
CHATTANOOGA    MOCLDY    84  69  60 SW3       29.91R
$$

SKY/WX REPORTED AS FAIR MEANS FEW OR NO CLOUDS BELOW
12 THOUSAND FEET.




USA.gov is the U.S. government's official web portal to all federal, state and local government web resources and services.